Regional Weather Roundup
Issued by NWS

Home | Current Version | Previous Version | Graphics & Text | Print | Product List | Glossary On
Versions: 1 2 3 4 5 6 7 8 9 10 11 12 13 14 15 16 17 18 19 20 21 22 23 24 25 26 27 28 29 30 31 32 33 34 35 36 37 38 39 40 41 42 43 44 45 46 47 48 49 50
000
ASUS43 KIND 291509
RWRIN

WEATHER ROUNDUP FOR INDIANA
NATIONAL WEATHER SERVICE INDIANAPOLIS IN
1100 AM EDT WED OCT 29 2014

NOTE: "FAIR" INDICATES FEW OR NO CLOUDS BELOW 12,000 FEET WITH NO
SIGNIFICANT WEATHER AND/OR OBSTRUCTIONS TO VISIBILITY.

* - STATION DOES NOT REPORT WEATHER SUCH AS PRECIPITATION OR FOG.

+ - STATION NOT QUALITY CONTROLLED BY THE NATIONAL WEATHER SERVICE.
    USE DATA WITH CAUTION...ESPECIALLY DEWPOINT AND RELATIVE
    HUMIDITY OBSERVATIONS.

INZ001>003-010>013-019-020-291600-
NORTHWEST INDIANA

CITY           SKY/WX    TMP DP  RH WIND       PRES   REMARKS
GARY /AIRPORT/ CLOUDY    46  32  57 W12G25    30.06R
KNOX *+        CLOUDY    45  34  65 W10       30.04R
LA PORTE +     CLOUDY    47  34  60 W7G16     30.04R
MICHIGAN CITY+ CLOUDY    45  32  61 NW10G16   30.04R
MONTICELLO +   CLOUDY    44  36  74 W9        30.07S
RENSSELAER +   CLOUDY    45  39  81 W10       30.07S
VALPARAISO     CLOUDY    45  32  60 W13       30.05R

$$

LMZ046-743>745-291600-
SOUTHERN LAKE MICHIGAN

STATION/POSITION TIME  TEMP WIND        PRES
                       AIR  DIR/SP/G
                 (UTC) (F)  (DEG/KT/KT) (MB)
MICHIGAN CITY    1500   46  270/ 19/ 22   N/A

$$

INZ004-005-014>016-021>024-291600-
NORTH CENTRAL INDIANA

CITY           SKY/WX    TMP DP  RH WIND       PRES   REMARKS
ELKHART        CLOUDY    45  36  70 W9        30.02R
GOSHEN         CLOUDY    44  36  73 W10       30.02R
LOGANSPORT +   CLOUDY    45  34  65 W12G17    30.08R
PERU/GRISSOM   CLOUDY    45  39  78 W13       30.06R
ROCHESTER +    CLOUDY    46  36  66 W9        30.05S
SOUTH BEND     CLOUDY    46  35  65 W10       30.03R
WARSAW +       CLOUDY    43  36  75 W10       30.03R

$$

INZ006>009-017-018-025>027-291600-
NORTHEAST INDIANA

CITY           SKY/WX    TMP DP  RH WIND       PRES   REMARKS
ANGOLA *+      CLOUDY    45  36  70 W10       30.00R
AUBURN +       CLOUDY    45  34  65 W8G16     30.02R
FORT WAYNE     PTSUNNY   47  36  65 SW15      30.04S
HUNTINGTON +   CLOUDY   N/A N/A N/A W13G23    30.04S

$$

INZ028-029-035-036-043>045-051>053-291600-
WEST CENTRAL INDIANA

CITY           SKY/WX    TMP DP  RH WIND       PRES   REMARKS
GREENCASTLE +  SUNNY     46  34  61 W8        30.11S
LAFAYETTE      CLOUDY    45  36  70 W10       30.09S
TERRE HAUTE    SUNNY     49  36  61 W8        30.13S

$$

INZ030>032-037>040-046>048-054>057-064-065-291600-
CENTRAL INDIANA

CITY           SKY/WX    TMP DP  RH WIND       PRES   REMARKS
ANDERSON       SUNNY     48  32  53 W17G29    30.08S
CP ATTERBURY + SUNNY     50  36  57 W13       30.11S
FRANKFORT +    CLOUDY    46  38  72 W13       30.10S
GREENWOOD *+   SUNNY     48  32  53 NW13G18   30.10S
INDIANAPOLIS   MOSUNNY   48  34  58 NW17      30.10R
-EAGLE CREEK   SUNNY     48  35  60 NW13      30.09R
KOKOMO *+      CLOUDY    45  34  65 W15       30.08R
MARION +       CLOUDY    45  34  66 W18       30.08R
MT COMFORT *+  SUNNY     48  28  46 W16       30.09S
SHELBYVILLE    SUNNY     51  36  56 W14       30.09R
ZIONSVILLE +   SUNNY     48  35  59 W9        30.09S

$$

INZ033-034-041-042-049-050-058-059-291600-
EAST CENTRAL INDIANA

CITY           SKY/WX    TMP DP  RH WIND       PRES   REMARKS
MUNCIE         SUNNY     48  36  63 W17       30.06S

$$

INZ060-061-067>069-081>083-085>088-291600-
SOUTHWEST INDIANA

CITY           SKY/WX    TMP DP  RH WIND       PRES   REMARKS
EVANSVILLE     SUNNY     54  36  50 VRB5      30.17R
HUNTINGBURG *+ SUNNY     54  39  58 N6        30.16R
WASHINGTON +   SUNNY     52  39  60 NW9       30.14S

$$

INZ062-063-066-070>080-084-089>092-291600-
SOUTH CENTRAL AND SOUTHEAST INDIANA

CITY           SKY/WX    TMP DP  RH WIND       PRES   REMARKS
BLOOMINGTON    SUNNY     49  35  58 W10       30.12R
NORTH VERNON + SUNNY     54  37  54 W9        30.11S

$$




USA.gov is the U.S. government's official web portal to all federal, state and local government web resources and services.